TimeCDT,TemperatureF,Dew PointF,Humidity,Sea Level PressureIn,VisibilityMPH,Wind Direction,Wind SpeedMPH,Gust SpeedMPH,PrecipitationIn,Events,Conditions,WindDirDegrees,DateUTC
12:56 AM,70.0,66.9,90,29.56,3.0,SSW,12.7,-,0.00,Rain,Light Rain,210,2013-03-24 05:56:00
1:08 AM,69.8,68.0,94,29.60,2.5,SSW,13.8,-,0.00,Rain,Light Rain,210,2013-03-24 06:08:00
1:16 AM,69.8,68.0,94,29.60,4.0,SW,11.5,-,0.00,,Overcast,220,2013-03-24 06:16:00
1:38 AM,71.6,68.0,88,29.60,5.0,SW,12.7,-,0.00,,Overcast,230,2013-03-24 06:38:00
1:56 AM,71.1,69.1,93,29.55,4.0,SW,12.7,-,0.00,Rain,Light Rain,220,2013-03-24 06:56:00
2:56 AM,72.0,69.1,91,29.53,5.0,SW,16.1,24.2,0.00,,Overcast,230,2013-03-24 07:56:00
3:56 AM,72.0,68.0,87,29.52,5.0,WSW,12.7,-,N/A,,Overcast,240,2013-03-24 08:56:00
4:12 AM,71.6,66.2,83,29.56,5.0,WSW,15.0,20.7,N/A,,Haze,240,2013-03-24 09:12:00
4:56 AM,72.0,66.9,84,29.52,5.0,WSW,11.5,-,N/A,,Haze,250,2013-03-24 09:56:00
5:56 AM,71.1,66.0,84,29.52,5.0,West,9.2,-,N/A,,Haze,260,2013-03-24 10:56:00
6:39 AM,66.2,60.8,83,29.59,10.0,NW,8.1,-,N/A,,Overcast,310,2013-03-24 11:39:00
6:48 AM,66.2,60.8,83,29.59,10.0,NW,8.1,-,N/A,,Mostly Cloudy,310,2013-03-24 11:48:00
6:56 AM,66.0,60.1,81,29.56,10.0,WNW,10.4,-,N/A,,Overcast,300,2013-03-24 11:56:00
7:56 AM,64.0,55.9,75,29.58,10.0,NW,11.5,-,N/A,,Clear,310,2013-03-24 12:56:00
8:56 AM,66.9,55.9,68,29.57,10.0,Calm,Calm,-,N/A,,Clear,0,2013-03-24 13:56:00
9:56 AM,70.0,55.9,61,29.60,10.0,NW,4.6,-,N/A,,Clear,320,2013-03-24 14:56:00
10:56 AM,77.0,55.0,47,29.63,10.0,West,11.5,-,N/A,,Clear,280,2013-03-24 15:56:00
11:56 AM,79.0,54.0,42,29.62,10.0,WNW,15.0,-,N/A,,Clear,300,2013-03-24 16:56:00
12:05 PM,78.8,55.4,44,29.65,10.0,NW,11.5,20.7,0.00,Rain,Light Rain,310,2013-03-24 17:05:00
12:56 PM,80.1,54.0,40,29.60,10.0,West,11.5,-,0.00,,Clear,280,2013-03-24 17:56:00
1:56 PM,82.0,53.1,37,29.58,10.0,WSW,12.7,21.9,N/A,,Clear,250,2013-03-24 18:56:00
2:56 PM,82.9,53.1,36,29.57,10.0,West,20.7,28.8,N/A,,Partly Cloudy,260,2013-03-24 19:56:00
3:56 PM,82.0,51.1,34,29.56,10.0,WNW,20.7,28.8,N/A,,Clear,290,2013-03-24 20:56:00
4:56 PM,81.0,44.1,27,29.56,10.0,West,19.6,24.2,N/A,,Partly Cloudy,280,2013-03-24 21:56:00
5:56 PM,72.0,51.1,48,29.62,10.0,NW,21.9,29.9,N/A,,Partly Cloudy,320,2013-03-24 22:56:00
6:56 PM,64.0,46.0,52,29.68,10.0,NW,17.3,29.9,N/A,,Partly Cloudy,320,2013-03-24 23:56:00
7:56 PM,61.0,41.0,48,29.73,10.0,NW,12.7,18.4,N/A,,Clear,310,2013-03-25 00:56:00
8:56 PM,59.0,28.9,32,29.77,10.0,NW,16.1,26.5,N/A,,Clear,320,2013-03-25 01:56:00
9:56 PM,55.0,28.9,37,29.81,10.0,NW,15.0,19.6,N/A,,Clear,320,2013-03-25 02:56:00
10:56 PM,51.1,33.1,50,29.86,10.0,NNW,12.7,21.9,N/A,,Clear,330,2013-03-25 03:56:00
11:56 PM,48.0,30.0,50,29.88,10.0,NW,13.8,21.9,N/A,,Clear,320,2013-03-25 04:56:00